Zurück zum Katalog

LEMUR 2 MARHISYAM

AktivWissenschaftSSO
NORAD 60536·PAYLOAD·🇺🇸 United States

Gestartet Aug 16, 2024 von Vandenberg Space Force Base

Loading…

Nächste Überflüge (nächste 24 Stunden)

TLE

AktuellSource: Space-Track

Epoche: Sep 14, 2026, 11:14 UTC

1 60536U 24149BW  26257.46826691  .00007343  00000-0  42261-3 0  9999
2 60536  97.6835 340.9306 0002521 144.8440 215.2957 15.12741976113975

Verfolge LEMUR 2 MARHISYAM in Echtzeit mit AllMySat

Download on the App Store